This is the latest recevied weather packets stored in our database for station/object 9A3XK-13. If no packets are shown the sender has not sent any weather packets the latest 10 day(s).
| Time | Temp. | Humidity | Pressure | Rain* | Wind** | Luminosity | Snow |
|---|---|---|---|---|---|---|---|
| 1777998915 | 26.11° C | 38% | 1010.4 hPa | 0 mm | - | 64 W/m² | - |
| 1777998616 | 26.67° C | 37% | 1010.3 hPa | 0 mm | - | 71 W/m² | - |
| 1777998316 | 26.67° C | 36% | 1010.3 hPa | 0 mm | - | 76 W/m² | - |
| 1777997716 | 27.22° C | 35% | 1010.3 hPa | 0 mm | - | 239 W/m² | - |
| 1777997416 | 27.22° C | 35% | 1010.3 hPa | 0 mm | - | 252 W/m² | - |
| 1777996516 | 27.22° C | 32% | 1010.3 hPa | 0 mm | - | 96 W/m² | - |
| 1777995319 | 27.78° C | 31% | 1010.3 hPa | 0 mm | - | 364 W/m² | - |
| 1777995015 | 27.78° C | 33% | 1010.3 hPa | 0 mm | - | 384 W/m² | - |
| 1777994719 | 27.78° C | 33% | 1010.3 hPa | 0 mm | - | 389 W/m² | - |
| 1777994118 | 27.78° C | 32% | 1010.4 hPa | 0 mm | - | 412 W/m² | - |
| 1777993816 | 27.78° C | 32% | 1010.5 hPa | 0 mm | - | 407 W/m² | - |
| 1777993515 | 27.78° C | 32% | 1010.5 hPa | 0 mm | - | 450 W/m² | - |
| 1777992315 | 27.22° C | 30% | 1010.6 hPa | 0 mm | - | 294 W/m² | - |
| 1777991715 | 27.78° C | 30% | 1010.5 hPa | 0 mm | - | 367 W/m² | - |
| 1777991115 | 27.22° C | 30% | 1010.6 hPa | 0 mm | - | 416 W/m² | - |
| 1777990815 | 27.78° C | 30% | 1010.7 hPa | 0 mm | - | 345 W/m² | - |
| 1777989915 | 27.78° C | 30% | 1010.7 hPa | 0 mm | - | 351 W/m² | - |
| 1777989616 | 27.78° C | 31% | 1010.7 hPa | 0 mm | - | 364 W/m² | - |
| 1777989315 | 27.78° C | 30% | 1010.8 hPa | 0 mm | - | 483 W/m² | - |
| 1777989016 | 27.78° C | 30% | 1010.8 hPa | 0 mm | - | 656 W/m² | - |
| 1777988716 | 27.22° C | 31% | 1010.9 hPa | 0 mm | - | 794 W/m² | - |
| 1777988415 | 27.22° C | 31% | 1010.9 hPa | 0 mm | - | 405 W/m² | - |
| 1777988115 | 27.22° C | 32% | 1011 hPa | 0 mm | - | 247 W/m² | - |
| 1777987815 | 27.22° C | 32% | 1011.1 hPa | 0 mm | - | 248 W/m² | - |
| 1777987515 | 27.78° C | 31% | 1011.1 hPa | 0 mm | - | 287 W/m² | - |
* Rain latest hour (hover to see other rain measurements)
** Current wind speed in m/s (hover to see current wind gust speed)